TimeEDT,TemperatureF,Dew PointF,Humidity,Sea Level PressureIn,VisibilityMPH,Wind Direction,Wind SpeedMPH,Gust SpeedMPH,PrecipitationIn,Events,Conditions,WindDirDegrees,DateUTC
12:58 AM,70.0,66.0,87,29.99,8.0,SW,11.5,-,N/A,,Clear,230,2013-05-17 04:58:00
1:58 AM,70.0,64.9,84,29.99,9.0,WSW,6.9,-,N/A,,Clear,240,2013-05-17 05:58:00
2:58 AM,72.0,66.0,81,29.99,9.0,WSW,4.6,-,N/A,,Clear,250,2013-05-17 06:58:00
3:58 AM,73.0,66.9,81,29.99,9.0,WSW,5.8,-,N/A,,Clear,250,2013-05-17 07:58:00
4:58 AM,72.0,66.0,81,30.01,9.0,West,9.2,-,N/A,,Clear,260,2013-05-17 08:58:00
5:58 AM,71.1,66.0,84,30.04,9.0,West,4.6,-,N/A,,Clear,280,2013-05-17 09:58:00
6:58 AM,71.1,66.0,84,30.05,8.0,West,5.8,-,N/A,,Clear,260,2013-05-17 10:58:00
7:58 AM,71.1,66.0,84,30.07,6.0,WSW,6.9,-,N/A,,Haze,250,2013-05-17 11:58:00
8:58 AM,75.0,66.0,73,30.08,8.0,West,10.4,-,N/A,,Clear,280,2013-05-17 12:58:00
9:58 AM,77.0,66.0,69,30.08,9.0,West,5.8,-,N/A,,Clear,280,2013-05-17 13:58:00
10:58 AM,79.0,64.9,62,30.08,10.0,Calm,Calm,-,N/A,,Clear,0,2013-05-17 14:58:00
11:58 AM,77.0,66.0,69,30.09,8.0,SW,8.1,-,N/A,,Clear,220,2013-05-17 15:58:00
12:58 PM,77.0,68.0,74,30.08,8.0,SSW,8.1,-,N/A,,Clear,210,2013-05-17 16:58:00
1:58 PM,78.1,66.0,66,30.08,9.0,SW,10.4,-,N/A,,Clear,220,2013-05-17 17:58:00
2:58 PM,78.1,64.9,64,30.08,10.0,SW,9.2,-,N/A,,Clear,220,2013-05-17 18:58:00
3:58 PM,80.1,66.0,62,30.07,10.0,South,8.1,-,N/A,,Clear,190,2013-05-17 19:58:00
4:58 PM,77.0,64.9,66,30.07,10.0,SSW,6.9,-,N/A,,Clear,200,2013-05-17 20:58:00
5:58 PM,75.0,66.0,73,30.08,10.0,SW,6.9,-,N/A,,Clear,220,2013-05-17 21:58:00
6:58 PM,73.0,64.9,76,30.08,10.0,SSW,5.8,-,N/A,,Clear,210,2013-05-17 22:58:00
7:58 PM,71.1,64.9,81,30.09,10.0,South,3.5,-,N/A,,Clear,170,2013-05-17 23:58:00
8:58 PM,70.0,66.0,87,30.10,9.0,Calm,Calm,-,N/A,,Clear,0,2013-05-18 00:58:00
9:58 PM,71.1,66.9,87,30.12,9.0,ESE,4.6,-,N/A,,Clear,110,2013-05-18 01:58:00
10:58 PM,71.1,68.0,90,30.13,8.0,ESE,4.6,-,N/A,,Partly Cloudy,120,2013-05-18 02:58:00
11:58 PM,70.0,68.0,93,30.15,7.0,ESE,3.5,-,N/A,,Scattered Clouds,120,2013-05-18 03:58:00